Boone, NC

12:17 PM EST on November 20, 2019 (GMT -0500)
Boone

Weather History for KTNB - September, 2019

Change the Weather History Date:

Friday, September 13, 2019

  Actual Average (KGEV) Record (KGEV)
Temperature  
Mean Temperature 68 °F -  
Max Temperature 79 °F 74 °F 86 °F (1998)
Min Temperature 58 °F 51 °F 35 °F (1967)
Cooling Degree Days 4    
Growing Degree Days 18 (Base 50)    
Moisture  
Dew Point 64 °F    
Average Humidity 88    
Maximum Humidity 100    
Minimum Humidity 63    
Precipitation  
Precipitation 0.00 in - - ()
Sea Level Pressure  
Sea Level Pressure 30.35 in    
Wind  
Wind Speed 1 mph (ESE)    
Max Wind Speed 9 mph    
Max Gust Speed 16 mph    
Visibility 7 miles    
Events Rain , Thunderstorm    
Averages and records for this station are not official NWS values.
T = Trace of Precipitation, MM = Missing Value Source: NWS Daily Summary

Daily Weather History Graph

Daily Weather History Graph

Search for Another Location

Airport or City:

Astronomy

Sep. 13, 2019 Rise Set
Actual Time 7:07 AM EDT 7:37 PM EDT
Civil Twilight 6:41 AM EDT 8:03 PM EDT
Nautical Twilight 6:11 AM EDT 8:33 PM EDT
Astronomical Twilight 5:40 AM EDT 9:04 PM EDT
Moon 7:48 PM EDT (9/13) 6:26 AM EDT (9/13)
Length of Visible Light 13h 21m
Length of Day
12h 29m
Full, 100% of the Moon is Illuminated
Sep 13
Full
Sep 14
Full
Sep 21
Last Quarter
Sep 28
New
Oct 5
First Quarter

Hourly Weather History & Observations

Time (EDT) Temp. Dew Point Humidity Pressure Visibility Wind Dir Wind Speed Gust Speed Precip Events Conditions
12:15 AM 63.5 °F 63.5 °F 100% 30.30 in 4.0 mi Calm Calm - N/A   Clear
12:35 AM 63.1 °F 63.1 °F 100% 30.30 in 4.0 mi Calm Calm - N/A   Scattered Clouds
12:55 AM 63.0 °F 63.0 °F 100% 30.30 in 4.0 mi Calm Calm - N/A   Mostly Cloudy
1:15 AM 62.8 °F 62.8 °F 100% 30.30 in 4.0 mi Calm Calm - N/A   Clear
1:35 AM 62.1 °F 62.1 °F 100% 30.29 in 4.0 mi Calm Calm - N/A   Clear
1:55 AM 61.9 °F 61.9 °F 100% 30.30 in 4.0 mi Calm Calm - N/A   Clear
2:15 AM 61.7 °F 61.7 °F 100% 30.30 in 3.0 mi Calm Calm - N/A   Clear
2:35 AM 61.3 °F 61.3 °F 100% 30.30 in 5.0 mi Calm Calm - N/A   Clear
2:55 AM 61.2 °F 61.2 °F 100% 30.30 in 3.0 mi Calm Calm - N/A   Clear
3:15 AM 61.0 °F 61.0 °F 100% 30.29 in 3.0 mi Calm Calm - N/A   Clear
3:35 AM 60.8 °F 60.8 °F 100% 30.29 in 3.0 mi Calm Calm - N/A   Clear
3:55 AM 61.0 °F 61.0 °F 100% 30.30 in 5.0 mi Calm Calm - N/A   Clear
4:15 AM 60.1 °F 60.1 °F 100% 30.29 in 3.0 mi Calm Calm - N/A   Clear
4:35 AM 59.9 °F 59.9 °F 100% 30.29 in 3.0 mi Calm Calm - N/A   Clear
4:55 AM 60.4 °F 60.4 °F 100% 30.30 in 7.0 mi Calm Calm - N/A   Clear
5:15 AM 59.7 °F 59.7 °F 100% 30.31 in 4.0 mi Calm Calm - N/A   Clear
5:35 AM 59.4 °F 59.4 °F 100% 30.32 in 4.0 mi Calm Calm - N/A   Clear
5:55 AM 58.8 °F 58.8 °F 100% 30.32 in 3.0 mi Calm Calm - N/A   Clear
6:15 AM 59.9 °F 59.9 °F 100% 30.32 in 7.0 mi Calm Calm - N/A   Clear
6:35 AM 58.5 °F 58.5 °F 100% 30.32 in 3.0 mi Calm Calm - N/A   Clear
6:55 AM 58.6 °F 58.6 °F 100% 30.33 in 3.0 mi Calm Calm - N/A   Clear
7:15 AM 58.1 °F 58.1 °F 100% 30.33 in 1.8 mi Calm Calm - N/A   Mist
7:35 AM 58.1 °F 58.1 °F 100% 30.34 in 2.0 mi Calm Calm - N/A   Clear
7:55 AM 58.3 °F 58.3 °F 100% 30.35 in 2.5 mi Calm Calm - N/A   Clear
8:15 AM 60.1 °F 60.1 °F 100% 30.35 in 4.0 mi Calm Calm - N/A   Clear
8:35 AM 61.7 °F 61.7 °F 100% 30.36 in 7.0 mi Calm Calm - N/A   Clear
8:55 AM 63.9 °F 63.5 °F 99% 30.36 in 7.0 mi Calm Calm - N/A   Clear
9:15 AM 65.5 °F 65.3 °F 99% 30.37 in 7.0 mi Calm Calm - N/A   Mostly Cloudy
9:35 AM 67.6 °F 67.6 °F 100% 30.37 in 7.0 mi Calm Calm - N/A   Overcast
9:55 AM 69.1 °F 67.3 °F 94% 30.38 in 7.0 mi Calm Calm - N/A   Mostly Cloudy
10:15 AM 69.8 °F 66.6 °F 89% 30.38 in 7.0 mi Calm Calm - N/A   Overcast
10:35 AM 70.7 °F 65.8 °F 85% 30.38 in 10.0 mi Calm Calm - N/A   Overcast
10:55 AM 71.6 °F 64.2 °F 77% 30.38 in 10.0 mi Calm Calm - N/A   Overcast
11:15 AM 72.7 °F 64.4 °F 75% 30.38 in 10.0 mi Calm Calm - N/A   Overcast
11:35 AM 73.8 °F 64.9 °F 74% 30.38 in 10.0 mi Calm Calm - N/A   Overcast
11:55 AM 75.6 °F 65.7 °F 71% 30.38 in 10.0 mi Calm Calm - N/A   Overcast
12:15 PM 76.1 °F 65.1 °F 69% 30.38 in 10.0 mi Calm Calm - N/A   Mostly Cloudy
12:35 PM 77.5 °F 65.7 °F 67% 30.38 in 10.0 mi Calm Calm - N/A   Scattered Clouds
12:55 PM 78.8 °F 65.3 °F 63% 30.38 in 10.0 mi Calm Calm - N/A   Clear
1:15 PM 78.4 °F 65.5 °F 64% 30.37 in 10.0 mi ESE 4.6 mph - N/A   Scattered Clouds
1:35 PM 78.8 °F 65.3 °F 63% 30.37 in 10.0 mi Calm Calm - N/A   Scattered Clouds
1:55 PM 78.4 °F 66.0 °F 66% 30.37 in 10.0 mi East 3.5 mph - N/A   Scattered Clouds
2:15 PM 77.9 °F 66.0 °F 67% 30.37 in 10.0 mi Calm Calm - N/A   Scattered Clouds
2:35 PM 78.4 °F 66.6 °F 67% 30.36 in 10.0 mi Calm Calm - N/A Thunderstorm Scattered Clouds
2:55 PM 79.9 °F 66.7 °F 64% 30.34 in 10.0 mi SE 3.5 mph - N/A   Scattered Clouds
3:15 PM 75.6 °F 66.0 °F 72% 30.34 in 10.0 mi Calm Calm - N/A   Scattered Clouds
3:35 PM 75.2 °F 65.5 °F 72% 30.33 in 10.0 mi Calm Calm - N/A   Scattered Clouds
3:55 PM 74.3 °F 65.7 °F 74% 30.33 in 10.0 mi Calm Calm - N/A   Clear
4:15 PM 74.3 °F 66.4 °F 76% 30.33 in 10.0 mi Calm Calm - N/A   Scattered Clouds
4:35 PM 73.9 °F 65.8 °F 76% 30.33 in 10.0 mi SE 3.5 mph - N/A   Scattered Clouds
4:55 PM 75.7 °F 66.0 °F 72% 30.33 in 10.0 mi SE 9.2 mph - N/A   Scattered Clouds
5:15 PM 73.6 °F 65.7 °F 76% 30.34 in 10.0 mi Calm Calm - N/A   Mostly Cloudy
5:35 PM 72.9 °F 65.8 °F 79% 30.33 in 10.0 mi Calm Calm - N/A   Scattered Clouds
5:55 PM 72.5 °F 65.5 °F 79% 30.34 in 10.0 mi ESE 6.9 mph - N/A   Mostly Cloudy
6:15 PM 72.1 °F 65.5 °F 79% 30.35 in 10.0 mi ESE 9.2 mph 16.1 mph N/A   Mostly Cloudy
6:35 PM 70.2 °F 65.1 °F 84% 30.36 in 7.0 mi Calm Calm - N/A   Overcast
6:55 PM 69.6 °F 64.9 °F 85% 30.36 in 7.0 mi ESE 5.8 mph - N/A   Mostly Cloudy
7:15 PM 69.1 °F 64.4 °F 85% 30.37 in 7.0 mi ESE 3.5 mph - N/A   Mostly Cloudy
7:35 PM 68.9 °F 66.0 °F 90% 30.37 in 7.0 mi Calm Calm - N/A Thunderstorm Mostly Cloudy
7:55 PM 68.7 °F 67.1 °F 95% 30.38 in 7.0 mi East 8.1 mph - N/A Thunderstorm Overcast
8:15 PM 68.4 °F 66.7 °F 95% 30.38 in 7.0 mi Calm Calm - N/A   Overcast
8:35 PM 68.4 °F 66.9 °F 95% 30.39 in 7.0 mi Calm Calm - N/A   Overcast
8:55 PM 68.4 °F 67.1 °F 96% 30.39 in 7.0 mi Calm Calm - N/A   Overcast
9:15 PM 68.4 °F 66.7 °F 95% 30.40 in 7.0 mi SE 4.6 mph - N/A Thunderstorm Overcast
9:35 PM 68.4 °F 66.7 °F 95% 30.40 in 7.0 mi Calm Calm - N/A Thunderstorm Thunderstorm
9:55 PM 68.2 °F 64.4 °F 88% 30.41 in 7.0 mi Calm Calm - N/A Rain , Thunderstorm Rain
10:35 PM 65.7 °F 64.0 °F 94% 30.41 in 10.0 mi Calm Calm - N/A Thunderstorm Scattered Clouds
10:55 PM 65.8 °F 63.9 °F 93% 30.40 in 10.0 mi Calm Calm - N/A   Overcast
11:15 PM 65.7 °F 63.3 °F 92% 30.39 in 10.0 mi Calm Calm - N/A   Mostly Cloudy
11:35 PM 64.6 °F 63.1 °F 95% 30.40 in 10.0 mi Calm Calm - N/A   Scattered Clouds
11:55 PM 64.9 °F 63.0 °F 93% 30.39 in 10.0 mi Calm Calm - N/A Thunderstorm Clear